WA4FG Weather Reports


Display with metric or nautical units.
time (UTC)temp
F
wind
direction
speed
MPH
gust
MPH
rain 1hr
in
rain 24hr
in
rain mn
in
humidity
%
barometer
mb
20260510015007 66 208 0.0 0.0 0.00 0.03 0.03 94 1013.6
20260510014500 66 208 0.0 0.0 0.00 0.03 0.03 94 1013.5
20260510013945 67 208 0.0 0.0 0.00 0.03 0.03 94 1013.4
20260510013443 67 208 0.0 0.0 0.00 0.03 0.03 94 1013.2
20260510012921 67 208 0.0 0.0 0.00 0.03 0.03 93 1013.1
20260510012404 67 208 0.0 0.0 0.00 0.03 0.03 93 1013.0
20260510011905 67 208 0.0 0.0 0.00 0.03 0.03 93 1012.9
20260510011406 67 208 0.0 0.0 0.00 0.03 0.03 93 1012.8
20260510010902 67 208 0.0 0.0 0.00 0.03 0.03 92 1012.8
20260510010343 68 208 0.0 0.0 0.00 0.03 0.03 92 1012.8
20260510005839 68 208 0.0 0.0 0.00 0.03 0.03 92 1012.7
20260510004316 68 208 0.0 0.0 0.00 0.03 0.03 91 1012.4
20260510003817 68 208 0.0 0.0 0.00 0.03 0.03 91 1012.6
20260510002742 69 208 0.0 0.0 0.00 0.03 0.03 90 1012.6
20260510002216 69 208 0.0 0.0 0.00 0.03 0.03 90 1012.6
20260510001709 69 208 0.0 0.0 0.00 0.03 0.03 90 1012.4
20260510001205 69 208 0.0 0.0 0.00 0.03 0.03 90 1012.4
20260510000718 69 208 0.0 0.0 0.00 0.03 0.03 90 1012.4
20260510000139 69 208 0.0 0.0 0.00 0.03 0.03 89 1012.3
20260509235612 69 208 0.0 0.0 0.00 0.03 0.03 89 1012.2
20260509235045 69 208 0.0 0.0 0.00 0.03 0.03 89 1012.0
20260509234542 69 208 0.0 0.0 0.00 0.03 0.03 89 1011.9
20260509234019 70 208 0.0 0.0 0.00 0.03 0.03 89 1011.9
20260509233447 70 208 0.0 0.0 0.00 0.03 0.03 88 1012.0
20260509232441 70 208 0.0 0.0 0.00 0.03 0.03 87 1011.7
20260509231938 70 208 0.0 0.0 0.00 0.03 0.03 86 1011.7
20260509231436 70 208 0.0 0.0 0.00 0.03 0.03 86 1011.7
20260509230910 71 208 0.0 0.0 0.00 0.03 0.03 85 1011.8
20260509225852 71 208 0.0 0.0 0.00 0.03 0.03 84 1011.7
20260509225325 71 208 0.0 0.0 0.00 0.03 0.03 84 1011.6
20260509224822 71 208 0.0 0.0 0.00 0.03 0.03 84 1011.4
20260509224259 72 208 0.0 0.0 0.00 0.03 0.03 83 1011.4
20260509223757 72 208 0.0 0.0 0.00 0.03 0.03 83 1011.4
20260509222231 72 208 0.0 0.0 0.00 0.03 0.03 82 1011.2
20260509221715 73 208 0.0 0.0 0.00 0.03 0.03 82 1011.2
20260509221159 73 208 0.0 0.0 0.00 0.03 0.03 81 1011.3
20260509220157 73 208 0.0 0.0 0.00 0.03 0.03 78 1011.3
20260509215635 73 208 0.0 0.0 0.00 0.03 0.03 79 1011.4
20260509215132 73 208 0.0 0.0 0.00 0.03 0.03 80 1011.1
20260509214031 73 208 0.0 0.0 0.00 0.03 0.03 76 1011.2
20260509213527 73 208 0.0 0.0 0.00 0.03 0.03 78 1011.2
20260509212509 73 208 0.0 1.0 0.00 0.03 0.03 76 1011.2
20260509212007 73 208 0.0 1.0 0.00 0.03 0.03 74 1011.1
20260509211505 73 206 0.0 2.0 0.00 0.03 0.03 74 1011.0
20260509211001 73 206 0.0 2.0 0.00 0.03 0.03 75 1011.0
20260509210456 73 190 0.0 1.0 0.00 0.03 0.03 75 1010.9
20260509205949 74 190 0.0 1.0 0.00 0.03 0.03 75 1011.1
20260509205421 74 188 0.0 1.0 0.00 0.03 0.03 78 1011.1
20260509204918 74 188 0.0 1.0 0.00 0.03 0.03 79 1010.9
20260509204352 74 188 0.0 2.0 0.00 0.03 0.03 77 1011.0
20260509203825 74 189 0.0 2.0 0.00 0.03 0.03 74 1011.0
20260509202800 74 198 0.0 1.0 0.00 0.03 0.03 74 1011.2
20260509202256 74 194 0.0 0.0 0.00 0.03 0.03 74 1011.3
20260509201754 74 194 0.0 0.0 0.00 0.03 0.03 74 1011.1
20260509201251 74 194 0.0 1.0 0.00 0.03 0.03 74 1011.1
20260509200747 74 194 0.0 1.0 0.00 0.03 0.03 76 1011.1
20260509200222 74 194 0.0 0.0 0.00 0.03 0.03 73 1011.1
20260509195656 74 193 0.0 0.0 0.00 0.03 0.03 73 1011.2
20260509195135 74 193 0.0 0.0 0.00 0.03 0.03 70 1011.2
20260509194634 74 193 0.0 1.0 0.00 0.03 0.03 69 1011.2
20260509194111 74 191 0.0 5.0 0.00 0.03 0.03 69 1011.4
20260509193540 74 192 0.0 5.0 0.00 0.03 0.03 73 1011.5
20260509193039 74 213 0.0 1.0 0.00 0.03 0.03 75 1011.4
20260509192538 74 215 0.0 0.0 0.00 0.03 0.03 74 1011.4
20260509192012 74 215 0.0 0.0 0.00 0.03 0.03 75 1011.5
20260509190417 73 216 0.0 1.0 0.00 0.03 0.03 76 1011.6
20260509185901 73 216 0.0 1.0 0.00 0.03 0.03 75 1011.6
20260509185401 72 216 0.0 1.0 0.00 0.03 0.03 76 1011.6
20260509184835 72 177 0.0 0.0 0.00 0.03 0.03 77 1011.7
20260509184309 72 177 0.0 1.0 0.00 0.03 0.03 79 1011.7
20260509183759 71 177 0.0 1.0 0.00 0.03 0.03 79 1011.9
20260509183257 71 177 0.0 0.0 0.00 0.03 0.03 81 1012.0
20260509182155 71 177 0.0 0.0 0.00 0.03 0.03 81 1012.1
20260509181705 70 177 0.0 2.0 0.00 0.03 0.03 82 1012.2
20260509181133 70 177 0.0 2.0 0.00 0.03 0.03 82 1012.4
20260509180632 70 177 0.0 1.0 0.00 0.03 0.03 84 1012.6
20260509180132 69 178 0.0 0.0 0.00 0.03 0.03 85 1012.6
20260509175634 69 178 0.0 4.0 0.00 0.03 0.03 86 1012.6
20260509174622 68 178 0.0 0.0 0.00 0.03 0.03 88 1012.7
20260509173553 68 178 0.0 2.0 0.00 0.03 0.03 90 1012.8
20260509173051 67 178 0.0 4.0 0.00 0.03 0.03 90 1013.0
20260509172529 67 178 0.0 4.0 0.00 0.03 0.03 91 1013.1
20260509172021 67 178 0.0 0.0 0.00 0.03 0.03 91 1013.0
20260509171002 66 178 0.0 0.0 0.00 0.03 0.03 94 1012.9
20260509170440 66 178 0.0 0.0 0.00 0.03 0.03 95 1012.8
20260509165355 66 178 0.0 1.0 0.00 0.03 0.03 96 1012.8
20260509164835 65 178 0.0 1.0 0.00 0.03 0.03 97 1012.8
20260509164308 65 178 0.0 0.0 0.00 0.03 0.03 97 1012.9
20260509163752 65 178 0.0 0.0 0.00 0.03 0.03 98 1012.9
20260509163255 65 178 0.0 0.0 0.00 0.03 0.03 98 1013.2
20260509162740 65 178 0.0 0.0 0.00 0.03 0.03 98 1013.4
20260509161211 64 178 0.0 0.0 0.00 0.03 0.03 99 1013.1
20260509160710 64 178 0.0 0.0 0.00 0.03 0.03 99 1013.3
20260509160144 64 178 0.0 0.0 0.00 0.03 0.03 99 1013.3
20260509155643 64 178 0.0 0.0 0.00 0.03 0.03 99 1013.2
20260509155120 64 178 0.0 0.0 0.00 0.03 0.03 99 1013.2
20260509154613 64 178 0.0 0.0 0.00 0.03 0.03 100 1013.3
20260509154113 64 178 0.0 0.0 0.00 0.03 0.03 100 1013.2
20260509153603 64 178 0.0 0.0 0.00 0.03 0.03 100 1013.3
20260509153045 64 178 0.0 0.0 0.00 0.03 0.03 100 1013.3
20260509152544 63 178 0.0 0.0 0.00 0.03 0.03 100 1013.3
20260509152023 63 178 0.0 0.0 0.00 0.03 0.03 100 1013.4
20260509150957 63 178 0.0 0.0 0.00 0.03 0.03 100 1013.3
20260509150427 63 178 0.0 1.0 0.00 0.03 0.03 100 1013.2
20260509145903 63 178 0.0 1.0 0.00 0.03 0.03 100 1013.1
20260509144819 63 182 0.0 0.0 0.00 0.03 0.03 100 1013.1
20260509144237 63 182 0.0 0.0 0.00 0.03 0.03 100 1013.1
20260509143711 62 182 0.0 0.0 0.00 0.03 0.03 100 1013.3
20260509143156 62 182 0.0 1.0 0.00 0.03 0.03 100 1013.2
20260509142654 62 182 0.0 1.0 0.00 0.03 0.03 100 1013.1
20260509142152 62 182 0.0 1.0 0.00 0.03 0.03 100 1013.1
20260509141632 62 182 0.0 0.0 0.00 0.03 0.03 100 1013.3
20260509141040 62 182 0.0 0.0 0.00 0.03 0.03 100 1013.3
20260509140517 62 182 0.0 0.0 0.00 0.03 0.03 100 1013.2
20260509135440 62 183 0.0 0.0 0.00 0.03 0.03 100 1013.4
20260509134937 62 183 0.0 0.0 0.00 0.03 0.03 100 1013.4
20260509134442 62 183 0.0 1.0 0.00 0.03 0.03 99 1013.5
20260509133931 62 183 0.0 4.0 0.00 0.03 0.03 99 1013.4
20260509133428 62 182 0.0 4.0 0.00 0.03 0.03 99 1013.3
20260509131923 62 180 0.0 0.0 0.00 0.03 0.03 100 1012.7
20260509131424 62 180 0.0 0.0 0.00 0.03 0.03 100 1012.8
20260509130925 62 180 0.0 0.0 0.00 0.03 0.03 99 1012.7
20260509125855 62 180 0.0 0.0 0.00 0.03 0.03 100 1012.5
20260509125328 62 180 0.0 0.0 0.00 0.03 0.03 100 1012.5
20260509124826 62 180 0.0 0.0 0.00 0.03 0.03 100 1012.3
20260509124310 62 180 0.0 0.0 0.00 0.03 0.03 99 1012.3
20260509122730 62 180 0.0 0.0 0.00 0.03 0.03 100 1012.5
20260509121702 62 180 0.0 0.0 0.00 0.03 0.03 99 1012.3
20260509121146 61 180 0.0 0.0 0.00 0.03 0.03 99 1012.2
20260509120647 61 180 0.0 0.0 0.00 0.03 0.03 99 1012.2
20260509120119 61 180 0.0 0.0 0.00 0.03 0.03 99 1012.1
20260509115552 61 180 0.0 0.0 0.00 0.03 0.03 99 1012.1
20260509114523 61 180 0.0 0.0 0.00 0.03 0.03 99 1012.0
20260509114004 61 180 0.0 0.0 0.00 0.03 0.03 99 1012.2
20260509112915 61 180 0.0 0.0 0.00 0.03 0.03 99 1012.3
20260509112349 61 180 0.0 0.0 0.00 0.03 0.03 99 1012.1
20260509111840 61 180 0.0 0.0 0.00 0.03 0.03 99 1012.1
20260509111352 61 180 0.0 0.0 0.00 0.03 0.03 99 1012.2
20260509110335 61 180 0.0 0.0 0.00 0.03 0.03 99 1012.1
20260509105837 61 180 0.0 0.0 0.00 0.03 0.03 99 1012.0
20260509105310 61 180 0.0 0.0 0.00 0.03 0.03 99 1012.2
20260509104807 61 180 0.0 0.0 0.00 0.03 0.03 99 1012.2
20260509104304 61 180 0.0 0.0 0.00 0.03 0.03 99 1012.0
20260509103800 61 180 0.0 0.0 0.00 0.03 0.03 99 1011.8
20260509102747 61 180 0.0 0.0 0.00 0.03 0.03 99 1011.8
20260509102220 61 180 0.0 0.0 0.00 0.03 0.03 99 1011.8
20260509101717 60 180 0.0 0.0 0.00 0.03 0.03 99 1011.8
20260509101150 60 180 0.0 0.0 0.00 0.03 0.03 99 1011.8
20260509100645 60 180 0.0 0.0 0.00 0.03 0.03 99 1011.9
20260509100142 60 180 0.0 0.0 0.00 0.03 0.03 99 1011.6
20260509095630 60 180 0.0 0.0 0.00 0.03 0.03 99 1011.2
20260509095126 60 180 0.0 0.0 0.00 0.03 0.03 99 1011.3
20260509094602 60 180 0.0 0.0 0.00 0.03 0.03 99 1011.0
20260509094037 60 180 0.0 0.0 0.00 0.03 0.03 99 1011.1
20260509093538 60 180 0.0 0.0 0.01 0.03 0.03 99 1010.9
20260509093036 60 180 0.0 0.0 0.02 0.03 0.03 98 1010.8
20260509092007 60 180 0.0 0.0 0.03 0.03 0.03 98 1010.5
20260509091502 60 180 0.0 0.0 0.03 0.03 0.03 98 1010.4
20260509090958 60 180 0.0 0.0 0.03 0.03 0.03 98 1010.6
20260509085923 60 180 0.0 0.0 0.03 0.03 0.03 98 1010.7
20260509085357 60 180 0.0 0.0 0.03 0.03 0.03 98 1010.7
20260509084835 60 180 0.0 5.0 0.03 0.03 0.03 98 1010.6
20260509084309 60 180 0.0 5.0 0.03 0.03 0.03 98 1010.7
20260509083808 60 220 0.0 1.0 0.03 0.03 0.03 98 1011.2
20260509083315 59 220 0.0 0.0 0.02 0.02 0.02 98 1011.6
20260509082808 59 220 0.0 0.0 0.00 0.00 0.00 98 1012.0
20260509082225 59 220 0.0 0.0 0.00 0.00 0.00 98 1012.1
20260509081200 59 220 0.0 0.0 0.00 0.00 0.00 98 1012.3
20260509080658 59 220 0.0 0.0 0.00 0.00 0.00 98 1012.4
20260509080156 59 220 0.0 0.0 0.00 0.00 0.00 98 1012.4
20260509075652 59 220 0.0 0.0 0.00 0.00 0.00 98 1012.5
20260509075133 59 220 0.0 0.0 0.00 0.00 0.00 98 1012.6
20260509074558 58 220 0.0 0.0 0.00 0.00 0.00 98 1012.4
20260509074032 58 220 0.0 0.0 0.00 0.00 0.00 98 1012.4
20260509072958 58 220 0.0 0.0 0.00 0.00 0.00 98 1012.2
20260509072425 58 220 0.0 0.0 0.00 0.00 0.00 98 1012.2
20260509071907 58 220 0.0 0.0 0.00 0.00 0.00 98 1012.1
20260509071359 58 220 0.0 0.0 0.00 0.00 0.00 98 1012.0
20260509070857 58 220 0.0 0.0 0.00 0.00 0.00 98 1011.7
20260509070355 58 220 0.0 0.0 0.00 0.00 0.00 98 1011.5
20260509065857 58 220 0.0 0.0 0.00 0.00 0.00 98 1011.7
20260509065318 58 220 0.0 0.0 0.00 0.00 0.00 97 1011.8
20260509064815 57 220 0.0 0.0 0.00 0.00 0.00 97 1011.9
20260509064316 57 220 0.0 0.0 0.00 0.00 0.00 97 1012.0
20260509063751 57 220 0.0 0.0 0.00 0.00 0.00 97 1012.1
20260509063229 57 220 0.0 0.0 0.00 0.00 0.00 97 1011.9
20260509062712 57 220 0.0 0.0 0.00 0.00 0.00 97 1011.9
20260509062135 57 220 0.0 0.0 0.00 0.00 0.00 97 1011.8
20260509061635 57 220 0.0 0.0 0.00 0.00 0.00 97 1012.1
20260509061125 57 220 0.0 0.0 0.00 0.00 0.00 97 1011.9
20260509060558 56 220 0.0 0.0 0.00 0.00 0.00 97 1011.8
20260509060100 56 220 0.0 0.0 0.00 0.00 0.00 97 1011.9
20260509055549 57 220 0.0 0.0 0.00 0.00 0.00 97 1012.2
20260509055048 57 220 0.0 0.0 0.00 0.00 0.00 97 1012.4
20260509054543 57 220 0.0 0.0 0.00 0.00 0.00 97 1012.3
20260509054016 57 220 0.0 0.0 0.00 0.00 0.00 97 1012.3
20260509051804 57 220 0.0 0.0 0.00 0.00 0.00 96 1012.6
20260509051235 57 220 0.0 0.0 0.00 0.00 0.00 96 1012.6
20260509050709 57 220 0.0 0.0 0.00 0.00 0.00 96 1012.6
20260509050149 57 220 0.0 0.0 0.00 0.00 0.00 96 1012.7
20260509045649 57 220 0.0 0.0 0.00 0.00 0.00 96 1012.7
20260509045131 57 220 0.0 0.0 0.00 0.00 0.00 96 1012.7
20260509044623 57 220 0.0 0.0 0.00 0.00 0.00 96 1012.6
20260509044121 57 220 0.0 0.0 0.00 0.00 0.00 96 1012.7
20260509043618 57 220 0.0 0.0 0.00 0.00 0.00 96 1012.7
20260509043119 57 220 0.0 0.0 0.00 0.00 0.00 96 1012.6
20260509042552 57 220 0.0 0.0 0.00 0.00 0.00 96 1012.7
20260509042034 57 220 0.0 0.0 0.00 0.00 0.00 95 1012.6
20260509041513 58 220 0.0 0.0 0.00 0.00 0.00 95 1012.6
20260509041009 58 220 0.0 0.0 0.00 0.00 0.00 95 1012.7
20260509040434 58 220 0.0 0.0 0.00 0.00 0.00 95 1012.6
20260509035911 58 220 0.0 0.0 0.00 0.00 0.00 95 1012.6
20260509035344 58 220 0.0 0.0 0.00 0.00 0.00 95 1012.6
20260509034837 58 220 0.0 0.0 0.00 0.00 0.00 95 1012.7
20260509034310 58 220 0.0 0.0 0.00 0.00 0.00 95 1012.7
20260509033817 58 220 0.0 0.0 0.00 0.00 0.00 95 1012.7
20260509033243 58 220 0.0 0.0 0.00 0.00 0.00 95 1012.8
20260509032732 58 220 0.0 0.0 0.00 0.00 0.00 95 1013.0
20260509032158 58 220 0.0 0.0 0.00 0.00 0.00 95 1012.9
20260509031701 58 220 0.0 0.0 0.00 0.00 0.00 95 1012.8
20260509031152 58 220 0.0 0.0 0.00 0.00 0.00 95 1012.6
20260509030626 58 220 0.0 0.0 0.00 0.00 0.00 95 1012.6
20260509025539 58 220 0.0 0.0 0.00 0.00 0.00 94 1012.4
20260509025022 58 220 0.0 0.0 0.00 0.00 0.00 94 1012.4
20260509024521 58 220 0.0 0.0 0.00 0.00 0.00 94 1012.5
20260509023431 58 220 0.0 0.0 0.00 0.00 0.00 93 1012.4
20260509022924 58 220 0.0 0.0 0.00 0.00 0.00 93 1012.7
20260509022420 59 220 0.0 0.0 0.00 0.00 0.00 93 1012.9
20260509021916 59 220 0.0 0.0 0.00 0.00 0.00 93 1012.9
20260509021407 59 220 0.0 0.0 0.00 0.00 0.00 93 1012.8
20260509020902 59 220 0.0 0.0 0.00 0.00 0.00 93 1012.8
20260509015833 59 220 0.0 0.0 0.00 0.00 0.00 93 1012.9
20260509015306 60 220 0.0 0.0 0.00 0.00 0.00 92 1012.8